Snowfall_Accumulation
3.9 2.5 1.1 1.5 0.6 0.6 0.8 1.1 0.7 0.7 0.2 0.1 0.1 0.2 0.3 0.2 0.1 0.1 0.1 0.1 0.0 0.1 0.1 0.2 0.2 0.2 0.1 0.3 0.3 0.5 0.6 0.9 1.2 1.0 0.6 0.6 0.5 0.4 0.2 0.1 0.0 0.0 0.0
9.8 7.0 5.7 6.6 8.5 4.6 5.6 4.3 5.1 5.0 2.3 2.0 1.6 1.1 1.1 0.6 1.2 0.3 0.4 1.6 1.7 0.5 0.7 0.6 0.8 0.2 0.4 0.2 0.1 0.4 0.6 1.0 1.2 1.7 1.5 1.4 1.3 0.9 0.6 0.4 0.3 0.2 0.1
5.1 8.5 5.5 5.5 8.1 13.5 12.2 11.0 9.0 8.0 7.4 7.0 5.7 4.8 4.4 5.1 4.6 7.4 3.8 1.6 2.3 3.7 3.7 3.1 2.1 1.8 1.4 1.4 1.1 0.5 0.7 0.6 0.5 2.4 2.3 1.8 1.3 1.1 0.9 0.6 0.6 0.3 0.2
3.1 2.7 6.9 8.0 1.2 4.4 10.7 8.7 6.7 6.5 8.6 11.0 14.4 14.3 12.2 8.0 8.9 7.4 7.0 7.4 4.0 6.2 7.5 3.2 3.1 4.1 3.5 2.3 3.3 2.6 2.2 1.5 1.8 1.9 2.0 2.6 3.9 2.1 1.5 1.7 2.6 0.9 0.8
2.3 1.7 1.4 2.1 1.9 0.5 0.9 2.4 2.0 1.8 3.7 9.3 10.3 10.6 9.1 7.6 7.1 4.5 2.9 7.2 6.3 6.0 9.8 7.3 4.7 3.8 3.7 2.5 1.2 3.3 2.8 4.4 6.3 5.4 5.2 7.3 9.8 7.2 7.0 6.3 8.2 7.8 6.8
0.1 0.5 0.6 0.4 0.4 0.7 0.3 1.3 0.1 0.0 0.0 0.6 1.1 0.6 4.0 3.2 2.1 0.8 0.5 1.8 3.5 2.7 2.9 2.9 2.2 1.4 1.7 2.4 2.3 1.5 2.0 4.0 5.5 6.9 8.3 8.0 10.5 11.1 9.4 9.2 12.0 11.4 12.7
0.8 0.0 0.0 1.1 1.8 2.1 1.9 1.7 3.3 1.2 0.8 0.3 0.2 0.1 0.0 0.2 0.3 0.2 0.0 0.2 0.4 1.1 1.1 0.8 0.9 0.5 0.5 0.9 1.5 1.4 1.3 1.3 3.0 3.1 5.2 5.7 5.2 5.0 4.5 5.3 5.7 6.9 9.7
0.0 0.0 1.3 2.1 2.8 2.9 3.1 2.5 2.5 2.4 1.4 1.4 3.3 1.4 1.3 0.1 0.1 0.0 0.1 0.0 0.0 0.0 0.5 0.2 0.3 0.2 0.3 0.4 1.2 0.9 0.3 0.6 0.7 0.7 1.1 1.1 0.6 0.7 1.1 1.3 2.7 2.6 2.4
4.2 3.6 3.6 2.8 2.5 2.7 3.0 2.4 2.4 2.5 2.9 2.4 2.3 0.8 1.3 0.4 0.2 0.3 0.1 0.0 0.7 0.6 0.2 0.0 0.1 0.1 0.0 0.7 1.1 1.4 0.4 0.5 0.1 0.1 0.3 0.4 0.2 0.3 0.3 2.4 6.6 12.3 13.6
6.2 8.6 3.8 4.4 2.8 5.1 5.0 3.4 4.3 2.0 3.0 2.8 2.2 1.4 0.8 0.8 0.3 0.5 0.4 0.4 0.5 0.2 0.2 0.1 0.1 0.2 1.2 1.5 3.1 3.5 3.4 2.9 2.6 1.9 1.7 1.4 1.1 0.7 2.5 1.6 4.8 10.0 8.4
3.9 8.8 4.3 6.3 3.0 5.7 6.8 5.5 4.4 4.7 6.7 6.4 3.0 5.5 4.9 0.6 0.4 0.2 0.6 1.0 1.9 3.6 1.2 0.7 0.6 2.1 2.0 1.8 1.4 2.8 4.0 1.2 2.3 1.9 2.8 3.7 4.3 5.2 4.3 1.2 1.9 3.6 7.2
1.8 4.0 7.2 6.8 4.7 4.5 4.5 6.5 8.6 9.0 7.1 7.7 6.2 7.9 5.2 5.1 3.8 2.7 3.6 3.6 5.9 6.5 7.8 4.7 4.7 4.4 1.7 0.6 4.8 3.7 5.5 5.8 6.4 9.4 10.9 12.3 13.7 12.3 11.6 10.7 8.9 7.6 8.2
0.6 0.9 3.5 5.7 5.0 4.7 5.4 6.4 5.6 6.2 6.3 7.3 7.4 5.8 8.2 8.3 8.8 8.4 8.9 8.0 8.1 10.4 9.8 11.8 9.4 9.8 5.2 6.1 5.7 7.1 6.0 11.3 19.9 24.3 24.2 21.6 21.5 20.5 19.2 19.6 16.8 16.8 16.4
0.1 0.2 0.5 2.2 4.6 2.3 3.2 3.4 5.3 6.1 5.7 6.7 6.1 6.3 5.9 6.0 5.7 6.0 7.1 9.3 9.6 12.1 12.5 14.6 19.0 16.8 16.8 21.9 20.4 28.4 29.7 34.1 36.5 40.5 39.8 35.0 35.1 31.8 27.5 23.8 21.4 19.6 20.2
0.0 0.1 0.4 0.2 1.1 3.6 2.4 3.7 3.7 4.8 4.9 7.5 8.5 7.5 8.9 12.8 11.8 8.4 10.4 7.5 10.0 12.8 16.6 19.1 25.9 22.7 26.3 25.9 26.6 28.8 31.5 31.9 33.7 32.8 32.3 29.2 27.1 25.8 24.1 20.6 20.2 18.5 17.9
0.6 0.7 1.2 0.6 1.3 2.0 3.2 6.0 4.0 3.9 2.9 4.9 4.2 6.1 10.4 13.7 14.2 15.2 15.0 17.1 19.6 20.4 28.2 30.4 30.6 30.4 29.5 27.3 25.7 24.7 20.5 19.7 20.4 19.2 19.6 16.6 18.0 17.5 16.3 13.7 12.0 13.3 15.1
0.9 1.6 2.3 3.3 2.5 4.0 3.3 5.4 10.6 11.1 8.7 9.9 10.0 13.3 13.2 15.1 13.5 12.5 12.4 14.4 15.1 15.5 20.1 19.2 19.4 19.3 17.5 16.6 19.0 16.7 18.3 14.4 11.0 11.5 12.7 11.6 11.7 10.5 11.3 11.2 11.3 10.5 11.7
2.2 2.9 3.5 7.1 9.9 10.7 7.2 9.1 12.7 13.5 18.8 21.5 17.5 15.8 14.1 13.3 12.5 11.6 10.9 10.3 14.5 10.2 14.0 14.9 16.6 15.0 12.5 13.8 14.6 13.6 12.0 10.5 9.2 9.6 10.8 9.8 9.9 10.4 10.5 9.9 8.9 9.4 9.2
3.4 3.4 9.1 10.8 12.8 14.3 14.0 13.4 14.4 15.9 15.2 15.3 13.1 13.5 12.7 9.7 9.3 9.6 8.3 10.0 12.5 11.6 9.9 10.1 9.4 8.3 8.3 7.1 7.3 7.9 7.7 8.0 7.3 8.6 9.1 9.0 9.4 9.5 8.9 7.9 7.4 7.8 7.9
6.9 9.7 10.0 10.6 12.1 12.3 12.5 11.9 12.6 12.5 12.9 12.4 13.0 13.4 12.3 9.3 12.0 12.0 9.4 9.3 9.7 8.2 8.5 6.7 5.7 5.6 5.5 6.7 7.8 7.1 7.2 6.1 6.6 6.8 7.9 7.8 7.8 8.6 9.8 8.8 8.0 10.5 8.6
13.3 13.8 12.5 10.7 11.8 11.7 11.0 10.6 10.0 10.5 10.1 9.5 10.9 10.2 7.2 6.9 9.1 8.7 7.2 6.0 5.4 4.8 5.8 5.4 5.7 6.4 6.8 7.0 6.5 5.6 5.3 5.4 5.0 6.1 6.6 6.8 7.3 8.6 6.5 5.4 6.5 5.6 6.2
11.8 12.1 11.3 10.7 9.6 9.8 9.3 8.5 9.4 9.1 8.4 8.8 8.5 7.5 4.9 5.8 5.7 4.5 4.8 5.3 5.3 4.8 5.4 6.4 5.5 4.7 4.5 5.5 5.7 6.2 5.3 5.3 5.3 5.5 5.6 5.4 5.0 5.9 6.5 6.6 6.3 6.6 7.7
8.9 9.1 8.8 8.4 7.7 6.6 6.3 6.3 7.2 6.6 5.8 5.1 5.9 8.0 6.2 5.5 5.6 5.0 6.4 4.6 5.2 3.6 2.5 2.9 4.4 3.2 3.0 4.1 3.8 4.8 5.6 4.7 5.1 4.9 6.6 6.4 6.1 6.0 6.9 7.3 6.6 6.9 6.6
6.2 7.0 6.7 5.6 5.8 4.8 4.1 4.1 3.5 3.4 5.4 6.8 6.9 6.2 5.7 4.9 5.9 6.5 5.4 4.4 3.3 3.2 3.2 3.5 3.6 4.0 3.5 4.1 4.5 4.5 4.1 4.2 5.0 5.3 5.2 6.8 5.3 4.2 5.9 6.8 6.3 5.8 6.1
4.7 5.3 4.9 5.6 5.4 6.1 5.8 5.2 5.9 5.8 5.8 6.2 7.1 6.2 4.8 4.6 4.9 4.5 4.9 4.9 4.4 4.0 3.4 2.6 3.2 3.9 3.5 4.2 4.1 4.3 4.1 5.1 5.8 5.3 7.4 6.0 5.2 3.9 4.7 6.1 6.1 9.0 7.1
3.5 4.4 4.8 5.6 6.2 6.7 8.4 8.6 7.2 5.4 5.1 4.7 5.5 5.6 5.4 5.0 4.3 5.0 5.2 4.7 5.6 3.7 3.6 3.8 2.7 2.9 2.8 3.5 3.6 5.0 4.8 4.5 6.9 6.6 8.5 7.9 6.9 6.0 5.4 6.5 5.2 6.9 6.1